TimePDT,TemperatureF,Dew PointF,Humidity,Sea Level PressureIn,VisibilityMPH,Wind Direction,Wind SpeedMPH,Gust SpeedMPH,PrecipitationIn,Events,Conditions,WindDirDegrees,DateUTC
12:53 AM,55.9,37.0,49,30.06,10.0,NW,11.5,-,N/A,,Overcast,310,2013-06-14 07:53:00
1:53 AM,55.0,37.0,51,30.06,10.0,NW,10.4,-,N/A,,Clear,310,2013-06-14 08:53:00
2:53 AM,55.9,35.1,45,30.05,10.0,WNW,16.1,25.3,N/A,,Scattered Clouds,300,2013-06-14 09:53:00
3:53 AM,54.0,35.1,49,30.06,10.0,NW,17.3,-,N/A,,Clear,310,2013-06-14 10:53:00
4:53 AM,55.0,35.1,47,30.07,10.0,NW,17.3,-,N/A,,Mostly Cloudy,310,2013-06-14 11:53:00
5:53 AM,55.0,36.0,49,30.09,10.0,WNW,4.6,-,N/A,,Scattered Clouds,300,2013-06-14 12:53:00
6:53 AM,54.0,37.9,55,30.10,10.0,Calm,Calm,-,N/A,,Clear,0,2013-06-14 13:53:00
7:53 AM,59.0,36.0,42,30.11,10.0,West,3.5,-,N/A,,Clear,260,2013-06-14 14:53:00
8:53 AM,62.1,36.0,38,30.11,10.0,SE,3.5,-,N/A,,Clear,140,2013-06-14 15:53:00
9:53 AM,66.0,36.0,33,30.10,10.0,Variable,3.5,-,N/A,,Clear,0,2013-06-14 16:53:00
10:53 AM,68.0,36.0,31,30.09,10.0,Variable,5.8,-,N/A,,Clear,0,2013-06-14 17:53:00
11:53 AM,68.0,36.0,31,30.09,10.0,Variable,4.6,17.3,N/A,,Clear,0,2013-06-14 18:53:00
12:53 PM,70.0,35.1,28,30.09,10.0,SSW,9.2,-,N/A,,Clear,200,2013-06-14 19:53:00
1:53 PM,73.0,37.0,27,30.07,10.0,South,11.5,20.7,N/A,,Clear,170,2013-06-14 20:53:00
2:53 PM,73.0,35.1,25,30.06,10.0,SW,10.4,18.4,N/A,,Clear,230,2013-06-14 21:53:00
3:53 PM,75.0,35.1,23,30.04,10.0,SSW,8.1,-,N/A,,Clear,210,2013-06-14 22:53:00
4:53 PM,73.9,35.1,24,30.02,10.0,SW,9.2,16.1,N/A,,Clear,230,2013-06-14 23:53:00
5:53 PM,73.9,35.1,24,30.00,10.0,South,10.4,-,N/A,,Clear,170,2013-06-15 00:53:00
6:53 PM,73.0,35.1,25,29.99,10.0,South,11.5,-,N/A,,Clear,170,2013-06-15 01:53:00
7:53 PM,71.1,35.1,27,29.99,10.0,South,9.2,-,N/A,,Clear,170,2013-06-15 02:53:00
8:53 PM,66.9,39.0,36,29.99,10.0,SE,8.1,-,N/A,,Clear,140,2013-06-15 03:53:00
9:53 PM,60.1,39.0,46,30.01,10.0,SSE,3.5,-,N/A,,Clear,150,2013-06-15 04:53:00
10:53 PM,62.1,37.9,41,30.01,10.0,Calm,Calm,-,N/A,,Clear,0,2013-06-15 05:53:00
11:53 PM,57.9,37.0,46,30.01,10.0,Calm,Calm,-,N/A,,Clear,0,2013-06-15 06:53:00